[[{"header":{"parameterUnit":"m.s-1","parameterCategory":1,"la1":30.2992,"la2":30.254,"lo1":-89.0895,"lo2":-89.0443,"dy":0.0025,"dx":0.0025,"nx":19,"ny":19,"refTime":"2026-05-11T09:00:00:Z","depth":0,"parameterNumber":2,"parameterNumberName":"U-component_of_WINDS"},"data":[0,0,0,-1.5612,-1.5615,-1.5756,-1.5756,-1.5968,-1.597,0,0,0,0,0,0,0,0,0,0,0,-1.5579,-1.5581,-1.5611,-1.5615,-1.5756,-1.5756,-1.5968,-1.597,0,0,0,0,0,0,0,0,0,0,0,-1.5579,-1.5581,-1.5583,-1.5616,-1.5756,-1.5756,-1.5967,-1.5852,0,0,0,0,0,0,0,0,0,0,-1.5711,-1.5688,-1.558,-1.5583,-1.5616,-1.5755,-1.5756,-1.5846,-1.5859,-1.5915,0,-1.5958,0,-1.5967,-1.5985,-1.5986,0,0,0,-1.5611,-1.5677,-1.5705,-1.5583,-1.5618,-1.5755,-1.5691,-1.5853,-1.5868,-1.5932,-1.5961,-1.5968,-1.597,-1.5987,-1.5988,-1.6304,-1.6306,0,0,-1.5603,-1.5612,-1.5695,-1.5715,-1.5684,-1.5686,-1.5695,-1.5862,-1.5897,-1.5961,-1.5973,-1.5974,-1.5988,-1.599,-1.6302,-1.6305,0,0,0,-1.5584,-1.5607,-1.5631,-1.5707,-1.5729,-1.5691,-1.5701,-1.589,-1.5896,-1.5975,-1.5976,-1.599,-1.5992,-1.6301,-1.6303,-1.6395,0,0,0,-1.5579,-1.5595,-1.5627,-1.5635,-1.5726,-1.5809,-1.5726,-1.5885,-1.5903,-1.5975,-1.599,-1.5995,-1.6299,-1.6302,-1.6388,-1.644,0,0,0,-1.5568,-1.5594,-1.5616,-1.5635,-1.5694,-1.5806,-1.5822,-1.5888,-1.5905,-1.5986,-1.5995,-1.6297,-1.6301,-1.6382,-1.643,-1.6528,0,0,0,-1.556,-1.5698,-1.5618,-1.5774,-1.5693,-1.5858,-1.5821,-1.5945,-1.6025,-1.5991,-1.6299,-1.6303,-1.6381,-1.6424,-1.6522,-1.6615,-1.6653,0,0,-1.574,-1.572,-1.5811,-1.5744,-1.5924,-1.5836,-1.6034,-1.6102,-1.6106,-1.6241,-1.6248,-1.6391,-1.6429,-1.6527,-1.6856,-1.6886,0,0,0,-1.5872,-1.5938,-1.5984,-1.6057,-1.6108,-1.616,-1.6195,-1.6222,-1.6335,-1.6173,-1.645,-1.6473,-1.653,-1.6575,-1.6601,-1.6653,-1.6322,-1.6322,-1.6321,-1.6144,-1.6135,-1.6287,-1.6296,-1.6369,-1.6405,-1.6467,-1.651,-1.6483,-1.6549,-1.6591,-1.679,-1.6842,-1.6861,-1.6916,-1.6635,-1.6636,-1.6636,-1.6636,-1.6412,-1.6507,-1.6464,-1.6596,-1.659,-1.6705,-1.6748,-1.6725,-1.6838,-1.6757,-1.6808,-1.6725,-1.6894,-1.6942,-1.6643,-1.6642,-1.6641,-1.664,-1.664,-1.6593,-1.6637,-1.6661,-1.6768,-1.6854,-1.6861,-1.697,-1.6961,-1.6954,-1.7003,-1.705,-1.7049,-1.7052,-1.7025,-1.7026,-1.7026,-1.7027,-1.7028,-1.7028,-1.6773,-1.6797,-1.6885,-1.6951,-1.6999,-1.7062,-1.7101,-1.7151,-1.7206,-1.7192,-1.7193,-1.7165,-1.6909,-1.6848,-1.7039,-1.7037,-1.7036,-1.7035,-1.7034,-1.7056,-1.699,-1.7126,-1.7174,-1.7254,-1.7343,-1.7328,-1.7432,-1.7473,-1.7529,-1.7489,-1.7299,-1.7281,-1.7261,-1.7211,-1.7485,-1.7485,-1.7485,-1.7485,-1.7213,-1.72,-1.7339,-1.7416,-1.7491,-1.7492,-1.7658,-1.7692,-1.7719,-1.7746,-1.7705,-1.7636,-1.7615,-1.761,-1.7582,-1.7536,-1.7886,-1.7887,-1.7887,-1.739,-1.7384,-1.7521,-1.7538,-1.76,-1.7658,-1.7815,-1.7915,-1.7932,-1.7903,-1.7769,-1.7753,-1.7641,-1.7604,-1.7577,-1.7533,-1.7448,0,0]},{"header":{"parameterUnit":"m.s-1","parameterCategory":1,"la1":30.2992,"la2":30.254,"lo1":-89.0895,"lo2":-89.0443,"dy":0.0025,"dx":0.0025,"nx":19,"ny":19,"refTime":"2026-05-11T09:00:00:Z","depth":0,"parameterNumber":3,"parameterNumberName":"V-component_of_WINDS"},"data":[0,0,0,-2.5382,-2.5375,-2.5036,-2.5034,-2.4633,-2.463,0,0,0,0,0,0,0,0,0,0,0,-2.5512,-2.551,-2.5382,-2.5375,-2.5036,-2.5034,-2.4634,-2.463,0,0,0,0,0,0,0,0,0,0,0,-2.5512,-2.551,-2.5508,-2.5374,-2.5036,-2.5034,-2.4635,-2.4877,0,0,0,0,0,0,0,0,0,0,-2.52,-2.535,-2.5511,-2.5508,-2.5372,-2.5036,-2.5034,-2.4888,-2.4862,-2.4805,0,-2.4769,0,-2.4695,-2.4607,-2.4605,0,0,0,-2.535,-2.5373,-2.5256,-2.5508,-2.5369,-2.5037,-2.5182,-2.4873,-2.4843,-2.477,-2.4763,-2.4747,-2.4688,-2.4604,-2.4602,-2.4373,-2.4373,0,0,-2.5369,-2.5464,-2.5276,-2.5238,-2.5302,-2.5193,-2.5172,-2.4854,-2.4849,-2.4762,-2.4737,-2.4681,-2.4602,-2.4599,-2.4373,-2.4373,0,0,0,-2.544,-2.5478,-2.5368,-2.5256,-2.5193,-2.5184,-2.5159,-2.4863,-2.482,-2.4732,-2.4677,-2.46,-2.4595,-2.4373,-2.4373,-2.4472,0,0,0,-2.545,-2.5519,-2.5377,-2.5432,-2.52,-2.5026,-2.5176,-2.4842,-2.4803,-2.4679,-2.46,-2.4592,-2.4373,-2.4373,-2.4469,-2.4502,0,0,0,-2.5523,-2.5527,-2.5489,-2.5438,-2.5296,-2.5028,-2.4966,-2.4831,-2.477,-2.4605,-2.4591,-2.4373,-2.4373,-2.4466,-2.4497,-2.447,0,0,0,-2.5627,-2.5578,-2.5493,-2.5414,-2.53,-2.5095,-2.4967,-2.4807,-2.4678,-2.4598,-2.4373,-2.4373,-2.4466,-2.4494,-2.4468,-2.4465,-2.4474,0,0,-2.5617,-2.558,-2.5526,-2.544,-2.5277,-2.5139,-2.4985,-2.4772,-2.4664,-2.4474,-2.4467,-2.447,-2.4497,-2.4469,-2.4486,-2.4494,0,0,0,-2.5554,-2.5518,-2.5453,-2.5339,-2.518,-2.5044,-2.4846,-2.4766,-2.4602,-2.459,-2.445,-2.4462,-2.4442,-2.4436,-2.4442,-2.4418,-2.4375,-2.4375,-2.4375,-2.5674,-2.5547,-2.5448,-2.528,-2.5169,-2.4967,-2.4862,-2.4719,-2.4617,-2.4586,-2.4529,-2.4556,-2.4553,-2.4557,-2.4533,-2.4517,-2.4517,-2.4517,-2.4518,-2.5647,-2.5574,-2.5445,-2.5304,-2.5166,-2.5042,-2.4843,-2.4775,-2.4635,-2.4588,-2.4564,-2.4524,-2.457,-2.4542,-2.4524,-2.4523,-2.4522,-2.4521,-2.4521,-2.5712,-2.5654,-2.5564,-2.5385,-2.5259,-2.5085,-2.4959,-2.4835,-2.4717,-2.4693,-2.4618,-2.4616,-2.4598,-2.4667,-2.4667,-2.4667,-2.4667,-2.4667,-2.4667,-2.5815,-2.5709,-2.5623,-2.5452,-2.5362,-2.5226,-2.5021,-2.4925,-2.4786,-2.4705,-2.4704,-2.4605,-2.46,-2.4601,-2.4668,-2.4667,-2.4667,-2.4667,-2.4667,-2.5835,-2.5812,-2.5679,-2.559,-2.5376,-2.5258,-2.5103,-2.4919,-2.4821,-2.4762,-2.4666,-2.4684,-2.4634,-2.4628,-2.4628,-2.4697,-2.4697,-2.4697,-2.4697,-2.589,-2.5855,-2.5691,-2.5556,-2.5407,-2.5255,-2.51,-2.4938,-2.4765,-2.4695,-2.4667,-2.4656,-2.4656,-2.4605,-2.46,-2.4598,-2.4658,-2.4658,-2.4658,-2.5895,-2.584,-2.5737,-2.5577,-2.54,-2.5249,-2.51,-2.4942,-2.4739,-2.4653,-2.4637,-2.4639,-2.462,-2.4621,-2.4537,-2.4531,-2.4524,0,0]}]]